Tracking 25701 objects as of 3-Jul-2022
HD Live streaming from Space Station
objects crossing your sky now

FENGYUN 1C DEB

Track FENGYUN 1C DEB now!
10-day predictions


NORAD ID: 30320
Int'l Code: 1999-025AAH
Perigee: 846.0 km
Apogee: 973.9 km
Inclination: 99.4 °
Period: 103.0 minutes
Semi major axis: 7280 km
RCS: 0.0266 m2 (small)
Launch date: May 10, 1999
Source: People's Republic of China (PRC)
Launch site: Taiyaun Space Center, China (TSC)

Note: This is SATELLITE DEBRIS
aabbcc
Your satellite tracking list
Your tracking list is empty




NASA's NSSDC Master Catalog

Two Line Element Set (TLE):
1 30320U 99025AAH 22183.85396788  .00000052  00000-0  67075-4 0  9999
2 30320  99.3533 214.5286 0087844 131.4511  43.4575 13.97401752788276
Source of the keplerian elements: AFSPC